Weather History for Buffalo, WY

Change the Weather History Date:

Monday, September 16, 2013

  Actual Average Record
Temperature  
Mean Temperature 66 °F 58 °F  
Max Temperature 80 °F 71 °F 92 °F (2000)
Min Temperature 51 °F 45 °F 36 °F (2006)
Degree Days  
Heating Degree Days 0 8  
Month to date heating degree days 10 90  
Since 1 July heating degree days 11 155  
Cooling Degree Days 1 1  
Month to date cooling degree days 86 37  
Year to date cooling degree days 700 483  
Growing Degree Days 16 (Base 50)    
Moisture  
Dew Point 49 °F    
Average Humidity 61    
Maximum Humidity 89    
Minimum Humidity 32    
Precipitation  
Precipitation 0.00 in 0.03 in 0.62 in (2006)
Month to date precipitation 1.66 0.59  
Year to date precipitation 6.08 10.86  
Sea Level Pressure  
Sea Level Pressure 29.89 in    
Wind  
Wind Speed 6 mph (South)    
Max Wind Speed 24 mph    
Max Gust Speed 30 mph    
Visibility 10 miles    
Events      
T = Trace of Precipitation, MM = Missing Value Source: NWS Daily Summary

Daily Weather History Graph

Daily Weather History Graph

Search for Another Location

Airport:

Trip Planner

Search our weather history database for the weather conditions in past years. The results will help you decide how hot, cold, wet, or windy it might be!

Date:

Astronomy

Sep. 16, 2013 Rise Set
Actual Time 6:47 AM MDT 7:15 PM MDT
Civil Twilight 6:18 AM MDT 7:44 PM MDT
Nautical Twilight 5:43 AM MDT 8:18 PM MDT
Astronomical Twilight 5:08 AM MDT 8:53 PM MDT
Moon 5:30 PM MDT (9/16) 3:31 AM MDT (9/16)
Length of Visible Light 13h 25m
Length of Day
12h 27m
Waxing Gibbous, 90% of the Moon is Illuminated
Sep 16
Waxing Gibbous
Sep 19
Full
Sep 26
Last Quarter
Oct 4
New
Oct 11
First Quarter

Hourly Weather History & Observations

Time (MDT) Temp. Dew Point Humidity Pressure Visibility Wind Dir Wind Speed Gust Speed Precip Events Conditions
12:53 AM 55.0 °F 48.9 °F 80% 30.03 in 10.0 mi SSE 23.0 mph - N/A   Clear
1:53 AM 53.1 °F 50.0 °F 89% 30.02 in 10.0 mi South 19.6 mph - N/A   Clear
2:53 AM 53.1 °F 50.0 °F 89% 30.00 in 10.0 mi SSE 17.3 mph - N/A   Clear
3:53 AM 54.0 °F 50.0 °F 86% 29.98 in 10.0 mi South 21.9 mph 27.6 mph N/A   Clear
4:53 AM 54.0 °F 50.0 °F 86% 29.97 in 10.0 mi SSE 17.3 mph - N/A   Clear
5:53 AM 52.0 °F 48.9 °F 89% 29.96 in 10.0 mi SSE 6.9 mph - N/A   Clear
6:53 AM 52.0 °F 48.0 °F 86% 29.96 in 10.0 mi SE 8.1 mph - N/A   Clear
7:53 AM 54.0 °F 50.0 °F 86% 29.95 in 10.0 mi SE 6.9 mph - N/A   Clear
8:53 AM 57.9 °F 51.1 °F 78% 29.94 in 10.0 mi Calm Calm - N/A   Clear
9:53 AM 62.1 °F 52.0 °F 70% 29.93 in 10.0 mi Calm Calm - N/A   Clear
10:53 AM 66.9 °F 48.9 °F 52% 29.91 in 10.0 mi Calm Calm - N/A   Clear
11:53 AM 71.1 °F 48.0 °F 44% 29.89 in 10.0 mi Calm Calm - N/A   Clear
12:53 PM 73.9 °F 46.0 °F 37% 29.88 in 10.0 mi Calm Calm - N/A   Clear
1:53 PM 77.0 °F 48.0 °F 36% 29.86 in 10.0 mi Variable 5.8 mph - N/A   Clear
2:53 PM 77.0 °F 48.0 °F 36% 29.84 in 10.0 mi Calm Calm - N/A   Clear
3:53 PM 80.1 °F 48.0 °F 32% 29.81 in 10.0 mi Calm Calm - N/A   Clear
4:53 PM 79.0 °F 46.0 °F 31% 29.81 in 10.0 mi Calm Calm - N/A   Clear
5:53 PM 78.1 °F 46.9 °F 33% 29.81 in 10.0 mi Calm Calm - N/A   Clear
6:53 PM 73.9 °F 50.0 °F 43% 29.81 in 10.0 mi Calm Calm - N/A   Clear
7:53 PM 64.0 °F 53.1 °F 67% 29.83 in 10.0 mi WSW 5.8 mph - N/A   Clear
8:53 PM 66.9 °F 51.1 °F 57% 29.82 in 10.0 mi WSW 4.6 mph - N/A   Clear
9:53 PM 64.0 °F 50.0 °F 60% 29.82 in 10.0 mi WSW 6.9 mph - N/A   Clear
10:53 PM 63.0 °F 46.9 °F 56% 29.81 in 10.0 mi WSW 6.9 mph - N/A   Clear
11:53 PM 64.0 °F 43.0 °F 46% 29.79 in 10.0 mi WSW 6.9 mph - N/A   Clear